THORAD AGENA D DEB

Satellite information

Favourite Embed

Satellite Type and Status

DEBRISIN ORBIT

Key statistics

Satellite THORAD AGENA D DEB at a glance.

Uptime

20179

Days in orbit

Revolutions

≈ 14.0

Per day

Orbit

SSO

Sun Synchronous Orbit

Inclination

100.0

Latest

Satellite identification and parameters

Extended collection of information and parameters for THORAD AGENA D DEB.

Object identification

Identified? True

Debris? True

Object name: THORAD AGENA D DEB

International designator: 1970-025CE

Object number (NORAD): 4720

Object ID (CCSDS): 4720

Country: UNITED STATES OF AMERICA (US)

Current information (Y/N): Y

RCS size: SMALL

Orbital parameters

Period: 102.552 minutes

Inclination: 100.0204 deg

SMA: 7257.558 km

Apoapsis: 940.471 km

Periapsis: 818.375 km

RAAN: 106.7975 deg

Eccentricy: 0.0084116

Argument of periapsis: 156.2928 deg

Mean anomaly: 204.2146 deg

Mean motion: 14.0416125 rev/day

Mean motion (dot): 0.00000162 rev/day2

B* drag term: 0.00013107 1/REarth

Two-line elements (TLE)

Creation date: July 6, 2025, 6:05 p.m.

Reference frame: TEME

Reference center: EARTH

Epoch: July 6, 2025, 7:27 a.m. UTC

TLE line 0: 0 THORAD AGENA D DEB

TLE line 1: 1 04720U 70025CE 25187.31108483 .00000162 00000-0 13107-3 0 9992

TLE line 2: 2 04720 100.0204 106.7975 0084116 156.2928 204.2146 14.04161250801888

Live tracking on map

Real-time ground track for satellite THORAD AGENA D DEB.

In-orbit conjunctions

A list of the most updated potential collisions computed for object THORAD AGENA D DEB.

Target Orbit TCA Probability of collision Miss distance Type
DMSP 5D-2 F14 DEB SSO 2025-02-23 22:54:17 0.0001421926 544.0 (m) DEBRIS

Associated space launch

Meteorological research and development satellite

THORAD AGENA D DEB was lifted into orbit during the mission ‘Thorad SLV-2G Agena D | Nimbus 4’, on board a Thorad SLV-2G Agena D space rocket.

The launch took place on April 8, 1970, 8:17 a.m. from Space Launch Complex 2E.

For more information about the launch, click the button.

Launch to space Thorad SLV-2G Agena D | Nimbus 4
Thorad SLV-2G Agena D | Nimbus 4

Agency: N/A

Status: Launch Successful

Launch date: April 8, 1970, 8:17 a.m. UTC

Rocket: Thorad SLV-2G Agena D

Launch pad: Space Launch Complex 2E

Location: Vandenberg SFB, CA, USA

...

Latest news about this satellite

There are no fresh news available about this satellite. Check back as we update our databases every day.


Newsletter sign-up

Weekly statistics, charts and insights to help you stay on top of the space industry.